This is the latest recevied weather packets stored in our database for station/object N8HON. If no packets are shown the sender has not sent any weather packets the latest 10 day(s).
| Time | Temp. | Humidity | Pressure | Rain* | Wind** | Luminosity | Snow |
|---|---|---|---|---|---|---|---|
| 1777926089 | 21.67° C | 45% | 1008.9 hPa | 0 mm | - | 163 W/m² | - |
| 1777925785 | 21.67° C | 44% | 1009 hPa | 0 mm | - | 207 W/m² | - |
| 1777925483 | 21.67° C | 45% | 1009.1 hPa | 0 mm | - | 544 W/m² | - |
| 1777925180 | 21.67° C | 46% | 1009.2 hPa | 0 mm | - | 174 W/m² | - |
| 1777924876 | 21.67° C | 43% | 1009.2 hPa | 0 mm | - | 461 W/m² | - |
| 1777924573 | 22.22° C | 42% | 1009.5 hPa | 0 mm | - | 231 W/m² | - |
| 1777924269 | 22.78° C | 43% | 1009.2 hPa | 0 mm | - | 632 W/m² | - |
| 1777923966 | 22.78° C | 43% | 1009.3 hPa | 0 mm | - | 635 W/m² | - |
| 1777923661 | 21.67° C | 46% | 1009.5 hPa | 0 mm | - | 679 W/m² | - |
| 1777923358 | 22.22° C | 44% | 1009.5 hPa | 0 mm | - | 146 W/m² | - |
| 1777923057 | 21.11° C | 45% | 1009.6 hPa | 0 mm | - | 720 W/m² | - |
| 1777922754 | 21.67° C | 45% | 1009.6 hPa | 0 mm | - | 608 W/m² | - |
| 1777922452 | 21.67° C | 46% | 1009.7 hPa | 0 mm | - | 522 W/m² | - |
| 1777922150 | 21.11° C | 44% | 1009.8 hPa | 0 mm | - | 728 W/m² | - |
| 1777921846 | 21.11° C | 45% | 1010.1 hPa | 0 mm | - | 224 W/m² | - |
| 1777921542 | 21.67° C | 45% | 1010.2 hPa | 0 mm | - | 420 W/m² | - |
| 1777921239 | 21.11° C | 46% | 1010 hPa | 0 mm | - | 752 W/m² | - |
| 1777920936 | 21.67° C | 45% | 1010 hPa | 0 mm | - | 213 W/m² | - |
| 1777920632 | 21.67° C | 46% | 1010 hPa | 0 mm | - | 741 W/m² | - |
| 1777920328 | 21.67° C | 47% | 1010.1 hPa | 0 mm | - | 461 W/m² | - |
| 1777920023 | 20.56° C | 47% | 1010.2 hPa | 0 mm | - | 842 W/m² | - |
| 1777919721 | 21.67° C | 46% | 1010.1 hPa | 0 mm | - | 787 W/m² | - |
| 1777919419 | 21.11° C | 46% | 1010 hPa | 0 mm | - | 307 W/m² | - |
| 1777919115 | 21.67° C | 45% | 1010.5 hPa | 0 mm | - | 553 W/m² | - |
| 1777918813 | 21.11° C | 47% | 1010.4 hPa | 0 mm | - | 829 W/m² | - |
* Rain latest hour (hover to see other rain measurements)
** Current wind speed in m/s (hover to see current wind gust speed)